This demonstration page uses our WeatherBlox Daily Observations layout. Learn more.

Left ArrowRight Arrow

38.89511, -77.03637

Hourly Observations for April 5, 2021

Temp ( °F °C ) Dew Point ( °F °C ) Humidity (%) Winds ( mph kmh ) Pressure ( in mb ) Visibility ( mi km ) Precip ( " mm )
12:52 am 00:52 Clear 58 14.4 27 -2.8 31 31 NNW 9 15 30.08 1019 10 16 0.00 0.00
1:52 am 01:52 Clear 53 11.7 34 1.1 48 48 N 6 9 30.09 1019 10 16 0.00 0.00
2:52 am 02:52 Partly Cloudy 54 12.2 34 1.1 47 47 NNE 5 7 30.10 1019 10 16 0.00 0.00
3:52 am 03:52 Partly Cloudy 50 10 32 0 50 50 N 8 13 30.10 1019 10 16 0.00 0.00
4:52 am 04:52 Mostly Clear 51 10.6 29 -1.7 43 43 NNW 7 11 30.11 1020 10 16 0.00 0.00
5:52 am 05:52 Mostly Clear 50 10 33 0.6 52 52 Calm 30.12 1020 10 16 0.00 0.00
6:52 am 06:52 Mostly Sunny 48 8.9 38 3.3 68 68 SSE 3 6 30.14 1021 10 16 0.00 0.00
7:52 am 07:52 Mostly Sunny 50 10 39 3.9 66 66 Calm 30.15 1021 10 16 0.00 0.00
8:52 am 08:52 Mostly Sunny 53 11.7 36 2.2 52 52 Calm 30.15 1021 10 16 0.00 0.00
9:52 am 09:52 Mostly Sunny 60 15.6 31 -0.6 33 33 NNW 8 13 30.14 1021 10 16 0.00 0.00
10:52 am 10:52 Mostly Sunny 62 16.7 31 -0.6 31 31 NNW 10 17 30.13 1020 10 16 0.00 0.00
11:52 am 11:52 Mostly Sunny 65 18.3 31 -0.6 28 28 NW 9 15 30.11 1020 10 16 0.00 0.00
12:52 pm 12:52 Mostly Sunny 67 19.4 29 -1.7 24 24 VRB 7 11 30.08 1019 10 16 0.00 0.00
1:52 pm 13:52 Mostly Sunny 70 21.1 31 -0.6 23 23 NW 14 22 30.06 1018 10 16 0.00 0.00
2:52 pm 14:52 Partly Cloudy 71 21.7 31 -0.6 23 23 NNW 9 15 30.03 1017 10 16 0.00 0.00
3:52 pm 15:52 Mostly Cloudy 72 22.2 31 -0.6 22 22 WNW 9 15 30.00 1016 10 16 0.00 0.00
4:52 pm 16:52 Mostly Cloudy 71 21.7 33 0.6 25 25 WNW 13 20 29.98 1015 10 16 0.00 0.00
5:52 pm 17:52 Mostly Cloudy 71 21.7 33 0.6 25 25 NW 6 9 29.97 1015 10 16 0.00 0.00
6:52 pm 18:52 Mostly Cloudy 70 21.1 39 3.9 32 32 N 7 11 29.97 1015 10 16 0.00 0.00
7:52 pm 19:52 Mostly Cloudy 66 18.9 37 2.8 34 34 Calm 29.97 1015 10 16 0.00 0.00
8:52 pm 20:52 Mostly Cloudy 63 17.2 40 4.4 43 43 Calm 29.98 1015 10 16 0.00 0.00
9:52 pm 21:52 Mostly Cloudy 62 16.7 39 3.9 43 43 Calm 30.00 1016 10 16 0.00 0.00
10:52 pm 22:52 Cloudy 61 16.1 40 4.4 46 46 SSW 6 9 29.99 1016 10 16 0.00 0.00
11:52 pm 23:52 Cloudy 60 15.6 45 7.2 58 58 N 5 7 29.99 1016 10 16 0.00 0.00

Powered by AerisWeather